• In Uzbekistan
  • List of Countries
  • For 7 days
  • Water Temperature
  • Satellite Maps
  • Weather Map
  • Weather Widgets
  • user-avatar
    Login

    Hourly Weather Charlottetown

    Today, 23 February, Friday

    Time Temperature Precipitation Wind Pressure Humidity
    00:00 -11°C° 0 mm 6 mps 776 mmHg 70%
    01:00 -11°C° 0 mm 6 mps 777 mmHg 70%
    02:00 -11°C° 0 mm 6 mps 777 mmHg 74%
    03:00 -12°C° 0 mm 6 mps 777 mmHg 75%
    04:00 -12°C° 0 mm 5 mps 777 mmHg 76%
    05:00 -11°C° 0 mm 4 mps 777 mmHg 76%
    06:00 -11°C° 0 mm 4 mps 778 mmHg 76%
    07:00 -10°C° 0 mm 3 mps 778 mmHg 76%
    08:00 -10°C° 0 mm 3 mps 778 mmHg 74%
    09:00 -10°C° 0 mm 3 mps 778 mmHg 71%
    10:00 -9°C° 0 mm 3 mps 778 mmHg 67%
    11:00 -9°C° 0 mm 3 mps 778 mmHg 64%
    12:00 -8°C° 0 mm 3 mps 777 mmHg 61%
    13:00 -8°C° 0 mm 3 mps 776 mmHg 58%
    14:00 -7°C° 0 mm 3 mps 775 mmHg 56%
    15:00 -7°C° 0 mm 3 mps 774 mmHg 56%
    16:00 -6°C° 0 mm 2 mps 774 mmHg 55%
    17:00 -6°C° 0 mm 2 mps 773 mmHg 55%
    18:00 -6°C° 0 mm 2 mps 772 mmHg 56%
    19:00 -7°C° 0 mm 3 mps 771 mmHg 57%
    20:00 -6°C° 0 mm 3 mps 770 mmHg 58%
    21:00 -7°C° 0.1 mm 4 mps 769 mmHg 62%
    22:00 -7°C° 0.1 mm 5 mps 767 mmHg 66%
    23:00 -8°C° 0.1 mm 6 mps 766 mmHg 70%

    Tomorrow, 24 February, Saturday

    Time Temperature Precipitation Wind Pressure Humidity
    00:00 -6°C° 0.3 mm 6 mps 764 mmHg 74%
    01:00 -6°C° 0.3 mm 7 mps 762 mmHg 78%
    02:00 -4°C° 0.3 mm 7 mps 760 mmHg 81%
    03:00 -3°C° 0.2 mm 7 mps 758 mmHg 83%
    04:00 -2°C° 0.2 mm 8 mps 757 mmHg 85%
    05:00 -1°C° 0.2 mm 8 mps 755 mmHg 88%
    06:00 -1°C° 0 mm 7 mps 754 mmHg 88%
    07:00 -1°C° 0 mm 7 mps 754 mmHg 89%
    08:00 -1°C° 0 mm 7 mps 753 mmHg 90%
    09:00 0°C° 0 mm 7 mps 753 mmHg 86%
    10:00 0°C° 0 mm 8 mps 753 mmHg 83%
    11:00 +1°C° 0 mm 9 mps 753 mmHg 79%
    12:00 +1°C° 0 mm 9 mps 754 mmHg 75%
    13:00 0°C° 0 mm 9 mps 754 mmHg 71%
    14:00 0°C° 0 mm 9 mps 755 mmHg 67%
    15:00 -1°C° 0 mm 8 mps 756 mmHg 68%
    16:00 -2°C° 0 mm 8 mps 757 mmHg 69%
    17:00 -2°C° 0 mm 8 mps 758 mmHg 70%
    18:00 -4°C° 0 mm 8 mps 759 mmHg 70%
    19:00 -4°C° 0 mm 8 mps 760 mmHg 70%
    20:00 -5°C° 0 mm 8 mps 762 mmHg 70%
    21:00 -6°C° 0 mm 8 mps 763 mmHg 70%
    22:00 -7°C° 0 mm 8 mps 764 mmHg 69%
    23:00 -8°C° 0 mm 9 mps 765 mmHg 69%

    Day after tomorrow, 25 February, Sunday

    Time Temperature Precipitation Wind Pressure Humidity
    00:00 -8°C° 0 mm 8 mps 766 mmHg 69%
    01:00 -9°C° 0 mm 7 mps 767 mmHg 68%
    02:00 -9°C° 0 mm 7 mps 768 mmHg 68%
    03:00 -10°C° 0 mm 6 mps 769 mmHg 68%
    04:00 -11°C° 0 mm 6 mps 770 mmHg 69%
    05:00 -11°C° 0 mm 5 mps 770 mmHg 69%
    06:00 -12°C° 0 mm 5 mps 771 mmHg 70%
    07:00 -12°C° 0 mm 5 mps 772 mmHg 70%
    08:00 -11°C° 0 mm 4 mps 772 mmHg 71%
    09:00 -11°C° 0 mm 4 mps 773 mmHg 67%
    10:00 -11°C° 0 mm 4 mps 773 mmHg 64%
    11:00 -9°C° 0 mm 3 mps 773 mmHg 61%
    12:00 -9°C° 0 mm 3 mps 772 mmHg 59%
    13:00 -8°C° 0 mm 3 mps 772 mmHg 57%
    14:00 -8°C° 0 mm 3 mps 772 mmHg 56%
    15:00 -9°C° 0 mm 4 mps 771 mmHg 57%
    16:00 -8°C° 0 mm 4 mps 771 mmHg 59%
    17:00 -8°C° 0 mm 4 mps 770 mmHg 60%
    18:00 -8°C° 0 mm 5 mps 770 mmHg 62%
    19:00 -8°C° 0 mm 5 mps 770 mmHg 64%
    20:00 -8°C° 0 mm 5 mps 769 mmHg 65%
    21:00 -8°C° 0 mm 6 mps 769 mmHg 67%
    22:00 -8°C° 0 mm 6 mps 768 mmHg 70%
    23:00 -8°C° 0 mm 7 mps 767 mmHg 72%

    26 February, Monday

    Time Temperature Precipitation Wind Pressure Humidity
    00:00 -8°C° 0.5 mm 7 mps 767 mmHg 77%
    01:00 -8°C° 0.5 mm 7 mps 766 mmHg 81%
    02:00 -8°C° 0.5 mm 8 mps 765 mmHg 86%
    03:00 -7°C° 0.5 mm 8 mps 764 mmHg 86%
    04:00 -7°C° 0.5 mm 8 mps 764 mmHg 86%
    05:00 -6°C° 0.5 mm 8 mps 763 mmHg 86%
    06:00 -6°C° 0.2 mm 8 mps 762 mmHg 87%
    07:00 -4°C° 0.2 mm 7 mps 762 mmHg 87%
    08:00 -4°C° 0.2 mm 7 mps 761 mmHg 88%
    09:00 -3°C° 0.2 mm 7 mps 760 mmHg 88%
    10:00 -3°C° 0.2 mm 7 mps 759 mmHg 88%
    11:00 -2°C° 0.2 mm 6 mps 759 mmHg 89%
    12:00 -1°C° 0.4 mm 5 mps 758 mmHg 90%
    13:00 -1°C° 0.4 mm 4 mps 757 mmHg 92%
    14:00 +1°C° 0.4 mm 2 mps 756 mmHg 94%
    15:00 +1°C° 0.2 mm 2 mps 756 mmHg 95%
    16:00 +2°C° 0.2 mm 1 mps 755 mmHg 96%
    17:00 +2°C° 0.2 mm 1 mps 755 mmHg 97%
    18:00 +1°C° 0 mm 2 mps 755 mmHg 97%
    19:00 0°C° 0 mm 3 mps 755 mmHg 96%
    20:00 -1°C° 0 mm 4 mps 756 mmHg 96%
    21:00 -1°C° 0 mm 4 mps 756 mmHg 95%
    22:00 -1°C° 0 mm 4 mps 756 mmHg 94%
    23:00 0°C° 0 mm 3 mps 756 mmHg 93%

    27 February, Tuesday

    Time Temperature Precipitation Wind Pressure Humidity
    00:00 -2°C° 0 mm 4 mps 756 mmHg 90%
    01:00 -2°C° 0 mm 5 mps 756 mmHg 88%
    02:00 -4°C° 0 mm 5 mps 756 mmHg 85%
    03:00 -4°C° 0 mm 6 mps 757 mmHg 85%
    04:00 -4°C° 0 mm 6 mps 757 mmHg 84%
    05:00 -5°C° 0 mm 6 mps 758 mmHg 83%
    06:00 -5°C° 0 mm 6 mps 758 mmHg 82%
    07:00 -5°C° 0 mm 6 mps 759 mmHg 82%
    08:00 -6°C° 0 mm 7 mps 759 mmHg 81%
    09:00 -6°C° 0 mm 7 mps 760 mmHg 77%
    10:00 -6°C° 0 mm 7 mps 760 mmHg 74%
    11:00 -5°C° 0 mm 8 mps 760 mmHg 70%
    12:00 -5°C° 0 mm 8 mps 760 mmHg 69%
    13:00 -5°C° 0 mm 8 mps 760 mmHg 68%
    14:00 -4°C° 0 mm 8 mps 760 mmHg 67%
    15:00 -4°C° 0 mm 7 mps 760 mmHg 68%
    16:00 -4°C° 0 mm 6 mps 761 mmHg 69%
    17:00 -4°C° 0 mm 5 mps 761 mmHg 71%
    18:00 -4°C° 0 mm 5 mps 761 mmHg 73%
    19:00 -4°C° 0 mm 4 mps 762 mmHg 76%
    20:00 -4°C° 0 mm 4 mps 762 mmHg 78%
    21:00 -4°C° 0 mm 4 mps 762 mmHg 79%
    22:00 -5°C° 0 mm 3 mps 762 mmHg 80%
    23:00 -5°C° 0 mm 3 mps 762 mmHg 81%

    28 February, Wednesday

    Time Temperature Precipitation Wind Pressure Humidity
    00:00 -5°C° 0 mm 3 mps 762 mmHg 83%
    01:00 -6°C° 0 mm 3 mps 762 mmHg 84%
    02:00 -5°C° 0 mm 2 mps 761 mmHg 85%
    03:00 -5°C° 0 mm 2 mps 762 mmHg 85%
    04:00 -5°C° 0 mm 2 mps 762 mmHg 85%
    05:00 -5°C° 0 mm 2 mps 762 mmHg 86%
    06:00 -5°C° 0 mm 2 mps 762 mmHg 85%
    07:00 -5°C° 0 mm 2 mps 762 mmHg 84%
    08:00 -5°C° 0 mm 2 mps 763 mmHg 83%
    09:00 -4°C° 0 mm 2 mps 763 mmHg 79%
    10:00 -5°C° 0 mm 3 mps 763 mmHg 74%
    11:00 -4°C° 0 mm 3 mps 763 mmHg 69%
    12:00 -4°C° 0 mm 4 mps 763 mmHg 68%
    13:00 -4°C° 0 mm 4 mps 763 mmHg 67%
    14:00 -3°C° 0 mm 4 mps 763 mmHg 66%
    15:00 -4°C° 0 mm 4 mps 764 mmHg 67%
    16:00 -4°C° 0 mm 4 mps 764 mmHg 69%
    17:00 -4°C° 0 mm 3 mps 764 mmHg 71%
    18:00 -5°C° 0 mm 3 mps 765 mmHg 73%
    19:00 -6°C° 0 mm 3 mps 765 mmHg 76%
    20:00 -6°C° 0 mm 3 mps 766 mmHg 78%
    21:00 -5°C° 0 mm 2 mps 766 mmHg 79%
    22:00 -6°C° 0 mm 2 mps 766 mmHg 81%
    23:00 -6°C° 0 mm 2 mps 766 mmHg 82%
    Show more